Location: Asheville, NC
(35.6000°N, 82.5500°W)
Time: 04:35:35
(UTC-04:00)

CUTE-I - Pass Details

Date: 10 February 2018
Orbit: 810 x 826 km, 98.7° (Epoch: 24 May)

Event Time Altitude Azimuth Distance (km) Brightness Sun altitude
Rises 06:27:45 0° 19° (NNE) 3,353 ? -11.6°
Reaches altitude 10° 06:30:10 10° 24° (NNE) 2,419 ? -11.1°
Maximum altitude 06:35:22 50° 100° (E) 1,032 ? -10.1°
Drops below altitude 10° 06:40:33 10° 176° (S) 2,413 ? -9.0°
Sets 06:42:58 0° 181° (S) 3,343 ? -8.5°
